TimeEAT,TemperatureF,Dew PointF,Humidity,Sea Level PressureIn,VisibilityMPH,Wind Direction,Wind SpeedMPH,Gust SpeedMPH,PrecipitationIn,Events,Conditions,WindDirDegrees,DateUTC
12:00 AM,60.8,55.4,82,30.21,6.2,West,4.6,-,N/A,,Scattered Clouds,270,2013-09-08 21:00:00
1:00 AM,60.8,57.2,88,30.18,6.2,NW,3.5,-,N/A,,Mostly Cloudy,320,2013-09-08 22:00:00
2:00 AM,60.8,57.2,88,30.18,6.2,North,4.6,-,N/A,,Mostly Cloudy,360,2013-09-08 23:00:00
2:30 AM,60.8,57.2,88,30.18,6.2,North,4.6,-,N/A,,Mostly Cloudy,360,2013-09-08 23:30:00
4:00 AM,59.0,57.2,94,30.18,6.2,Calm,Calm,-,N/A,,Mostly Cloudy,0,2013-09-09 01:00:00
5:00 AM,59.0,57.2,94,30.21,6.2,Calm,Calm,-,N/A,,Mostly Cloudy,0,2013-09-09 02:00:00
5:30 AM,59.0,57.2,94,30.21,6.2,Calm,Calm,-,N/A,,Mostly Cloudy,0,2013-09-09 02:30:00
7:00 AM,59.0,57.2,94,30.24,6.2,Calm,Calm,-,N/A,,Overcast,0,2013-09-09 04:00:00
8:00 AM,60.8,57.2,88,30.24,6.2,Calm,Calm,-,N/A,,Overcast,0,2013-09-09 05:00:00
9:00 AM,62,56,76,,19,SSE,6.9,,,,Overcast,160,2013-09-09 06:00:00
9:30 AM,64.4,55.4,73,30.27,6.2,SE,4.6,-,N/A,,Mostly Cloudy,140,2013-09-09 06:30:00
10:00 AM,66.2,55.4,68,30.27,6.2,South,6.9,-,N/A,,Mostly Cloudy,170,2013-09-09 07:00:00
10:30 AM,68.0,53.6,60,30.27,6.2,SSE,4.6,-,N/A,,Mostly Cloudy,160,2013-09-09 07:30:00
11:00 AM,68.0,55.4,64,30.24,6.2,South,4.6,-,N/A,,Mostly Cloudy,170,2013-09-09 08:00:00
11:30 AM,71.6,53.6,53,30.24,6.2,ESE,6.9,-,N/A,,Mostly Cloudy,110,2013-09-09 08:30:00
12:00 PM,73.4,53.6,50,30.21,6.2,ESE,10.4,-,N/A,,Mostly Cloudy,110,2013-09-09 09:00:00
12:30 PM,73.4,53.6,50,30.21,6.2,ENE,4.6,-,N/A,,Mostly Cloudy,70,2013-09-09 09:30:00
1:00 PM,73.4,53.6,50,30.18,6.2,East,8.1,-,N/A,,Mostly Cloudy,90,2013-09-09 10:00:00
1:30 PM,73.4,53.6,50,30.18,6.2,ENE,4.6,-,N/A,,Mostly Cloudy,70,2013-09-09 10:30:00
2:00 PM,75.2,53.6,47,30.15,6.2,SE,11.5,-,N/A,,Mostly Cloudy,140,2013-09-09 11:00:00
2:30 PM,77.0,53.6,44,30.15,6.2,ESE,9.2,-,N/A,,Mostly Cloudy,110,2013-09-09 11:30:00
3:00 PM,76,52,32,,19,East,6.9,,,,Mostly Cloudy,100,2013-09-09 12:00:00
3:00 PM,75.2,51.8,44,30.12,6.2,East,6.9,-,N/A,,Mostly Cloudy,100,2013-09-09 12:00:00
3:30 PM,78.8,53.6,42,30.12,6.2,East,8.1,-,N/A,,Mostly Cloudy,100,2013-09-09 12:30:00
4:00 PM,75.2,51.8,44,30.12,6.2,ENE,8.1,-,N/A,,Mostly Cloudy,70,2013-09-09 13:00:00
4:30 PM,77.0,51.8,41,30.12,6.2,SSE,10.4,-,N/A,,Mostly Cloudy,150,2013-09-09 13:30:00
5:00 PM,77.0,51.8,41,30.12,6.2,ESE,13.8,-,N/A,,Mostly Cloudy,110,2013-09-09 14:00:00
5:30 PM,73.4,53.6,50,30.12,6.2,East,17.3,-,N/A,,Mostly Cloudy,100,2013-09-09 14:30:00
6:00 PM,73.4,51.8,47,30.12,6.2,East,13.8,-,N/A,,Scattered Clouds,100,2013-09-09 15:00:00
6:30 PM,71.6,53.6,53,30.12,6.2,East,15.0,-,N/A,,Scattered Clouds,90,2013-09-09 15:30:00
7:00 PM,69.8,53.6,56,30.15,6.2,East,16.1,-,N/A,,Scattered Clouds,80,2013-09-09 16:00:00
7:30 PM,66.2,51.8,60,30.15,6.2,East,12.7,-,N/A,,Scattered Clouds,80,2013-09-09 16:30:00
8:00 PM,66.2,53.6,64,30.18,6.2,East,9.2,-,N/A,,Scattered Clouds,90,2013-09-09 17:00:00
8:30 PM,64.4,53.6,68,30.18,6.2,SE,5.8,-,N/A,,Scattered Clouds,130,2013-09-09 17:30:00
9:00 PM,65,54,59,,19,SE,6.9,,,,Mostly Cloudy,130,2013-09-09 18:00:00
9:00 PM,64.4,53.6,68,30.18,6.2,SE,6.9,-,N/A,,Mostly Cloudy,130,2013-09-09 18:00:00
9:30 PM,64.4,53.6,68,30.18,6.2,SSE,10.4,-,N/A,,Mostly Cloudy,160,2013-09-09 18:30:00
10:00 PM,64.4,53.6,68,30.21,6.2,SSE,8.1,-,N/A,,Mostly Cloudy,160,2013-09-09 19:00:00
11:00 PM,62.6,53.6,72,30.24,6.2,South,6.9,-,N/A,,Mostly Cloudy,180,2013-09-09 20:00:00
11:30 PM,59.0,53.6,82,30.24,6.2,SSW,3.5,-,N/A,,Partly Cloudy,210,2013-09-09 20:30:00